Flag for Spain Weather past 2 weeks in Valencia, Spain

Now
70 °F

Passing clouds.


Feels Like: 70 °F
Forecast: 62 / 76 °F
Wind: 1 mph from North

Location: Valencia / Aeropuerto

Current Time: Apr 25, 2015 at 10:52:45 PM

Latest Report: Apr 25, 2015 at 10:00 PM


Visibility: N/A

Pressure: 29.89 "Hg

Humidity: 60%

Dew point: 55 °F

Location of ValenciaLocation

Historic Weather in Valencia — Graph

°F

Valencia temperature yesterday

Maximum temperature yesterday: 73 °F (at 12:00 PM)
Minimum temperature yesterday: 54 °F (at 4:00 AM)
Average temperature yesterday: 63 °F

Past Weeks' High & Low Weather Summary

 TemperatureHumidityPressure
High81 °F (Apr 17, 2:30 PM)100% (Apr 12, 7:30 AM)30.42 "Hg (Apr 12, 7:30 AM)
Low46 °F (Apr 14, 5:00 AM)24% (Apr 19, 3:30 PM)29.86 "Hg (Apr 18, 5:30 PM)
Average62 °F69%30.12 "Hg
* Reported Apr 10 9:00 PM — Apr 25 9:30 PM, Valencia, Weather by CustomWeather, © 2015

Note: Actual official high and low records may vary slightly from our data, if they occured in-between our weather recording intervals... More about our weather records

Advertising

Valencia weather history for previous 24 hours

 ConditionsComfort  
Time TempWeatherWind HumidityBarometerVisibility
9:30 PM
Sat, Apr 25
68 °FPassing clouds.1 mph69%29.89 "HgN/A
9:00 PM68 °FPassing clouds.5 mph69%29.86 "HgN/A
8:30 PM70 °FPassing clouds.9 mph64%29.86 "HgN/A
8:00 PM77 °FPassing clouds.10 mph34%29.86 "HgN/A
7:30 PM77 °FPassing clouds.10 mph34%29.86 "HgN/A
7:00 PM79 °FPassing clouds.12 mph32%29.86 "HgN/A
6:30 PM79 °FPassing clouds.15 mph30%29.86 "HgN/A
6:00 PM79 °FPassing clouds.12 mph30%29.86 "HgN/A
5:30 PM81 °FPassing clouds.6 mph30%29.86 "HgN/A
5:00 PM79 °FPassing clouds.6 mph32%29.86 "HgN/A
4:30 PM79 °FPassing clouds.9 mph30%29.86 "HgN/A
4:00 PM79 °FPassing clouds.12 mph32%29.89 "HgN/A
3:30 PM79 °FPassing clouds.15 mph32%29.89 "HgN/A
3:00 PM77 °FPassing clouds.16 mph34%29.89 "HgN/A
2:30 PM77 °FPassing clouds.20 mph34%29.89 "HgN/A
2:00 PM79 °FPassing clouds.17 mph34%29.92 "HgN/A
1:30 PM77 °FPassing clouds.20 mph34%29.92 "HgN/A
1:00 PM77 °FPassing clouds.20 mph34%29.92 "HgN/A
12:30 PM77 °FPassing clouds.18 mph34%29.95 "HgN/A
12:00 PM77 °FPassing clouds.14 mph36%29.95 "HgN/A
11:30 AM77 °FPassing clouds.13 mph36%29.95 "HgN/A
11:00 AM73 °FPassing clouds.3 mph41%29.95 "HgN/A
10:30 AM72 °FPassing clouds.7 mph44%29.95 "HgN/A
10:00 AM70 °FSunny.7 mph50%29.95 "Hg10 mi
9:30 AM68 °FPassing clouds.6 mph53%29.95 "HgN/A
9:00 AM63 °FSunny.No wind83%29.95 "Hg10 mi
8:30 AM59 °FSunny.No wind94%29.95 "Hg10 mi
8:00 AM59 °FClear.No wind94%29.92 "Hg6 mi
7:30 AM57 °FFog.No wind94%29.92 "Hg2 mi
7:00 AM57 °FClear.No wind94%29.92 "Hg4 mi
6:30 AM57 °FClear.6 mph94%29.92 "Hg4 mi
6:00 AM57 °FClear.2 mph94%29.92 "Hg4 mi
5:30 AM59 °FClear.2 mph94%29.89 "Hg4 mi
5:00 AM61 °FClear.No wind88%29.89 "Hg4 mi
4:30 AM61 °FClear.No wind88%29.92 "Hg4 mi
4:00 AM61 °FClear.No wind88%29.92 "Hg4 mi
3:30 AM63 °FClear.2 mph83%29.92 "Hg4 mi
3:00 AM63 °FClear.3 mph88%29.92 "Hg4 mi
2:30 AM61 °FClear.1 mph94%29.92 "Hg4 mi
2:00 AM63 °FClear.1 mph88%29.92 "Hg6 mi
1:30 AM63 °FClear.2 mph88%29.92 "Hg6 mi
1:00 AM63 °FClear.1 mph88%29.92 "Hg6 mi
12:30 AM63 °FClear.1 mph88%29.92 "Hg6 mi
12:00 AM63 °FClear.5 mph88%29.92 "Hg6 mi
11:30 PM
Fri, Apr 24
63 °FClear.1 mph88%29.95 "Hg6 mi
11:00 PM63 °FClear.5 mph88%29.92 "Hg6 mi
10:30 PM63 °FClear.5 mph88%29.92 "Hg6 mi
10:00 PM63 °FClear.3 mph88%29.92 "Hg6 mi
Weather by CustomWeather, © 2015

See weather overviewHow to use our weather pages